Weather in Medford

United States     42°20′07″N   122°52′45″W
temp.,
°C
wind,
m/s
gust,
m/s
humid.,
%
clouds,
%
prec.,
mm/h
press.,
hPa
HPBL,
m
18 may, tue
tue1823:00+8wsw117671 0.0 102061
02:00+7ssw127875 0.0 102198
05:00+5ssw1186100 0.0 102237
08:00+11wnw016592 0.0 1021457
11:00+16nnw243921 0.0 10191992
14:00+19nw462411 0.0 10162564
17:00+18nw552259 0.0 10152331
20:00+11nnw3447100 0.0 1017349
19 may, wed
wed1923:00+5nw126868 0.0 102077
02:00+2wsw1183100 0.0 102155
05:00+1sw01903 0.0 102149
08:00+5n11634 0.0 1021486
11:00+11nnw233534 0.0 10181864
14:00+14nw4424100 0.0 10143055
17:00+9wnw4653100 0.1 10151698
20:00+5w1384100 2.0 1018119
20 may, thu
thu2023:00+3wnw128792 2.4 1020122
02:000wsw129487 0.1 102138
05:00+2wsw1289100 0.1 1022109
08:00+4w1275100 0.1 1022430
11:00+6nw1462100 0.2 10221159
14:00+9nnw2543100 0.3 10201886
17:00+10nnw4642100 0.4 10191965
20:00+6nnw2490100 1.3 1021144
21 may, fri
fri2123:00+3w119485 1.8 102226
02:00+4wsw119379 0.1 102240
05:00+2wsw119488 0.1 102249
08:00+5w118499 0.0 1022299
11:00+8nw2461100 0.0 10211190
14:00+10n2557100 0.1 10201442
17:00+9ne2464100 0.2 10201066
20:00+8ene117127 0.1 102032
22 may, sat
sat2223:00+4s1192100 0.1 102218
02:00+3s219394 0.0 102129
05:00+4sw1189100 0.0 102134
08:00+6nnw1177100 0.1 1020257
11:00+13nne235285 0.1 10181291
14:00+15nne224597 0.0 10171497
17:00+17n253967 0.0 10151954
20:00+13nne115498 0.0 101614